DECAYED

STARLINK-1963, 47564 (Decayed)

Orbit data source: Space-Track

STARLINK-1963, 47564 was a payload satellite owned by SpaceX/Seattle (US) in LEO that was launched on Thu, 04 Feb 2021 UTC via an FALCON 9 launch vehicle from the Air Force Eastern Test Range (AFETR). Payload-class satellites include a variety of spacecraft equipped with specific instruments for various scientific and technological missions. These include communications satellites like Starlink; space stations such as the ISS; scientific satellites like the Hubble; Earth observation satellites from companies like Planet Labs, Umbra, and HawkEye 360; GPS; miniature CubeSats for education and research; and military/defense satellites.

Not visible in the next 10 days
Identifier
47564, 2021-009S
Orbit
Decayed
Country
Flag of USUS
Related business
Manufacturer
SpaceX/Seattle
Mission
Decayed Commercial Communications
Bus & Motor
STARLINK, Unknown motor
Mass
260 kg wet, ~248 kg dry
Launch date (UTC)
2021-02-04 (5 years ago)
Launch vehicle
FALCON 9
Launch site
Air Force Eastern Test Range (AFETR)
Object type
Payload
Rocket body
Debris
Shape & HBR
Box + 1 Pan, 10.1 m
Radar Cross Section
13.562 m², Large (>1 m²)

Expand to show TLE details & history
Last TLE update: 1 year ago

TLE from 1 year ago
0 STARLINK-1963
1 47564U 21009S   25151.40942036  .19483750  12620-4  38564-3 0  9991
2 47564  53.0215 152.7630 0006117 310.1069 204.1000 16.46808234239624
Epoch: 2025-05-31T09:49Z
TLE epoch observation values (Epoch: 2025-05-31T09:49:33.919Z)
Latitude
20.40967°
Longitude
-79.95248°
Altitude
151.911 km
Speed
7.816 km/s
True Right ascension
21h 06m 21s
True Declination
20° 17' 14"
Sunlit
Object was in daylight at epoch
Visualization orbit readout
Latitude
Unknown
Longitude
Unknown
Altitude
Unknown
Speed
Unknown
Apparent Right ascension
Unknown
Apparent Declination
Unknown
Sunlit
N/A
Visualization observer readout
Local Sidereal Time
23:07:44
Azimuth
Unknown
Elevation
Unknown
Doppler factor
Unknown
Orbital elements
Apogee altitude
152.039 km
Perigee altitude
144.054 km
Semi-major axis
6,526.183 km
Eccentricity
0.00061
Inclination
53.0215°
RAAN
152.763°
Arg. of periapsis
310.1069°
True anomaly
204.0714°
Mean anomaly
204.1°
Eccentric anomaly
204.0857°
Mean motion
4.11675 °/min
Orbital period
87.45 mins
BSTAR
0.00038564
Loading maneuver chart data...
Computing Atmospheric mass density...

Documentation

Showing up to 5 results
|